Weather History for Delta, CO

Change the Weather History Date:

Thursday, February 21, 2013

  Actual Average (KMTJ) Record (KMTJ)
Temperature  
Mean Temperature 38 °F 34 °F  
Max Temperature 46 °F 46 °F 57 °F (2000)
Min Temperature 31 °F 22 °F 18 °F (2009)
Degree Days  
Heating Degree Days 26 31  
Month to date heating degree days 704  
Since 1 July heating degree days 4509  
Cooling Degree Days 0 0  
Month to date cooling degree days 0  
Year to date cooling degree days 0  
Moisture  
Dew Point 28 °F    
Average Humidity 73    
Maximum Humidity 98    
Minimum Humidity 35    
Precipitation  
Precipitation 0.00 in 0.02 in 0.08 in (2004)
Month to date precipitation 0.39  
Year to date precipitation 1.04  
Sea Level Pressure  
Sea Level Pressure 29.73 in    
Wind  
Wind Speed 5 mph (NW)    
Max Wind Speed 18 mph    
Max Gust Speed 24 mph    
Visibility 10 miles    
Events Rain , Snow    
T = Trace of Precipitation, MM = Missing Value Source: NWS Daily Summary

Daily Weather History Graph

Daily Weather History Graph

Search for Another Location

Airport:

Trip Planner

Search our weather history database for the weather conditions in past years. The results will help you decide how hot, cold, wet, or windy it might be!

Date:

Astronomy

Feb. 21, 2013 Rise Set
Actual Time 6:55 AM MST 5:56 PM MST
Civil Twilight 6:28 AM MST 6:23 PM MST
Nautical Twilight 5:57 AM MST 6:54 PM MST
Astronomical Twilight 5:26 AM MST 7:25 PM MST
Moon 2:16 PM MST 4:00 AM MST
Length of Visible Light 11h 55m
Length of Day
11h 01m
Waxing Gibbous, 84% of the Moon is Illuminated
Feb 21
Waxing Gibbous
Feb 25
Full
Mar 4
Last Quarter
Mar 11
New
Mar 19
First Quarter

Hourly Weather History & Observations

Time (MST) Temp. Windchill Dew Point Humidity Pressure Visibility Wind Dir Wind Speed Gust Speed Precip Events Conditions
12:15 AM 34.2 °F 29.0 °F 32.2 °F 92% 29.61 in 10.0 mi SW 5.8 mph - N/A   Overcast
12:35 AM 34.2 °F - 32.0 °F 92% 29.61 in 10.0 mi Calm Calm - N/A   Overcast
12:55 AM 33.3 °F - 32.0 °F 95% 29.61 in 10.0 mi Calm Calm - N/A   Overcast
1:15 AM 33.1 °F 30.0 °F 32.0 °F 96% 29.61 in 10.0 mi NNE 3.5 mph - N/A   Overcast
1:35 AM 32.9 °F 28.5 °F 32.0 °F 96% 29.61 in 10.0 mi NNE 4.6 mph - N/A   Overcast
1:55 AM 32.4 °F 26.0 °F 31.8 °F 98% 29.62 in 10.0 mi NNE 6.9 mph - N/A   Overcast
2:15 AM 32.0 °F 26.4 °F 31.3 °F 97% 29.61 in 10.0 mi North 5.8 mph - N/A   Overcast
2:35 AM 32.0 °F 27.5 °F 31.1 °F 96% 29.61 in 10.0 mi NNE 4.6 mph - N/A   Overcast
2:55 AM 32.7 °F - 31.8 °F 96% 29.61 in 10.0 mi Calm Calm - N/A   Overcast
3:15 AM 32.5 °F - 31.5 °F 96% 29.61 in 10.0 mi Calm Calm - N/A   Mostly Cloudy
3:35 AM 32.0 °F - 30.6 °F 94% 29.62 in 10.0 mi Calm Calm - N/A   Overcast
3:55 AM 32.0 °F - 31.1 °F 96% 29.62 in 10.0 mi Calm Calm - N/A   Overcast
4:15 AM 32.5 °F - 31.6 °F 96% 29.62 in 10.0 mi Calm Calm - N/A   Overcast
4:55 AM 32.9 °F 29.8 °F 31.1 °F 93% 29.64 in 10.0 mi NW 3.5 mph - N/A   Overcast
5:15 AM 35.4 °F 27.8 °F 28.6 °F 76% 29.64 in 10.0 mi WNW 10.4 mph 16.1 mph N/A   Overcast
5:35 AM 32.9 °F 28.5 °F 30.0 °F 89% 29.64 in 10.0 mi NNW 4.6 mph - N/A   Overcast
5:55 AM 32.2 °F - 30.2 °F 92% 29.65 in 10.0 mi Calm Calm - N/A   Overcast
6:15 AM 32.5 °F - 30.0 °F 90% 29.65 in 10.0 mi Calm Calm - N/A   Overcast
6:35 AM 32.2 °F - 29.8 °F 91% 29.66 in 10.0 mi Calm Calm - N/A   Overcast
6:55 AM 31.6 °F - 29.3 °F 91% 29.67 in 10.0 mi Calm Calm - N/A   Overcast
7:15 AM 32.0 °F - 30.2 °F 93% 29.68 in 10.0 mi Calm Calm - N/A   Overcast
7:35 AM 34.0 °F 28.0 °F 27.7 °F 78% 29.69 in 10.0 mi WNW 6.9 mph - N/A   Overcast
7:55 AM 34.2 °F 25.7 °F 27.7 °F 77% 29.70 in 10.0 mi West 11.5 mph - N/A   Overcast
8:15 AM 33.4 °F 24.8 °F 27.5 °F 79% 29.71 in 10.0 mi West 11.5 mph 16.1 mph N/A   Overcast
8:35 AM 32.4 °F 27.9 °F 30.0 °F 91% 29.72 in 10.0 mi NNW 4.6 mph - N/A   Overcast
8:55 AM 33.1 °F - 30.0 °F 89% 29.73 in 10.0 mi Calm Calm - N/A   Overcast
9:15 AM 33.8 °F - 30.4 °F 87% 29.73 in 10.0 mi Calm Calm - N/A   Mostly Cloudy
9:35 AM 33.8 °F - 30.7 °F 89% 29.73 in 10.0 mi Calm Calm - N/A   Mostly Cloudy
9:55 AM 34.2 °F - 30.6 °F 87% 29.75 in 10.0 mi Calm Calm - N/A   Overcast
10:15 AM 34.7 °F - 30.7 °F 85% 29.75 in 10.0 mi Calm Calm - N/A   Overcast
10:35 AM 35.8 °F - 30.6 °F 81% 29.75 in 10.0 mi Calm Calm - N/A   Overcast
10:55 AM 36.5 °F - 30.6 °F 79% 29.76 in 10.0 mi Calm Calm - N/A   Overcast
11:15 AM 37.8 °F - 31.3 °F 77% 29.76 in 10.0 mi Calm Calm - N/A   Overcast
11:35 AM 37.8 °F 35.3 °F 31.8 °F 79% 29.76 in 10.0 mi NNE 3.5 mph - N/A   Overcast
11:55 AM 38.7 °F 36.3 °F 31.8 °F 76% 29.76 in 10.0 mi ENE 3.5 mph - N/A   Overcast
12:15 PM 39.6 °F - 32.0 °F 74% 29.76 in 10.0 mi Calm Calm - N/A   Overcast
12:35 PM 40.1 °F - 30.2 °F 68% 29.75 in 10.0 mi Calm Calm - N/A   Overcast
12:55 PM 41.9 °F - 29.5 °F 61% 29.74 in 10.0 mi Calm Calm - N/A   Overcast
1:15 PM 43.3 °F 35.8 °F 22.3 °F 43% 29.73 in 10.0 mi West 16.1 mph 21.9 mph N/A   Mostly Cloudy
1:35 PM 43.0 °F 35.1 °F 21.7 °F 43% 29.74 in 10.0 mi West 17.3 mph 21.9 mph N/A   Overcast
1:55 PM 43.7 °F 35.7 °F 21.6 °F 41% 29.74 in 10.0 mi West 18.4 mph 23.0 mph N/A   Overcast
2:15 PM 43.7 °F 35.7 °F 21.4 °F 41% 29.74 in 10.0 mi West 18.4 mph 24.2 mph N/A   Overcast
2:35 PM 43.9 °F 36.2 °F 21.0 °F 40% 29.74 in 10.0 mi West 17.3 mph 23.0 mph N/A   Overcast
2:55 PM 46.2 °F 40.1 °F 20.7 °F 36% 29.74 in 10.0 mi WNW 13.8 mph 18.4 mph N/A   Overcast
3:15 PM 45.7 °F 39.1 °F 20.1 °F 36% 29.73 in 10.0 mi West 15.0 mph - N/A   Overcast
3:35 PM 45.7 °F 39.8 °F 19.8 °F 36% 29.74 in 10.0 mi West 12.7 mph 18.4 mph N/A   Scattered Clouds
3:55 PM 46.4 °F 40.1 °F 19.8 °F 35% 29.74 in 10.0 mi West 15.0 mph 20.7 mph N/A   Mostly Cloudy
4:15 PM 45.7 °F 39.1 °F 19.2 °F 35% 29.74 in 10.0 mi West 15.0 mph 18.4 mph N/A   Overcast
4:35 PM 45.3 °F 38.7 °F 19.0 °F 35% 29.74 in 10.0 mi West 15.0 mph 19.6 mph N/A   Overcast
4:55 PM 44.6 °F 38.1 °F 19.6 °F 37% 29.75 in 10.0 mi West 13.8 mph - N/A   Mostly Cloudy
5:15 PM 43.7 °F 36.9 °F 18.5 °F 36% 29.75 in 10.0 mi West 13.8 mph - N/A   Mostly Cloudy
5:35 PM 42.4 °F 35.7 °F 19.2 °F 39% 29.75 in 10.0 mi WNW 12.7 mph 17.3 mph N/A   Overcast
5:55 PM 41.4 °F 35.2 °F 19.4 °F 41% 29.77 in 10.0 mi West 10.4 mph - N/A   Overcast
6:15 PM 40.5 °F 35.1 °F 20.1 °F 44% 29.77 in 10.0 mi WNW 8.1 mph - N/A   Overcast
6:35 PM 38.8 °F 36.5 °F 27.0 °F 62% 29.79 in 10.0 mi SSE 3.5 mph - N/A   Overcast
6:55 PM 37.6 °F 34.0 °F 28.0 °F 68% 29.79 in 10.0 mi SE 4.6 mph - N/A   Overcast
7:15 PM 37.0 °F 33.3 °F 28.0 °F 70% 29.81 in 10.0 mi ESE 4.6 mph - N/A   Overcast
7:35 PM 36.0 °F 33.3 °F 28.0 °F 73% 29.81 in 10.0 mi ENE 3.5 mph - N/A   Overcast
7:55 PM 35.8 °F 30.1 °F 28.4 °F 75% 29.82 in 10.0 mi NNE 6.9 mph - N/A   Overcast
8:15 PM 35.4 °F 32.6 °F 28.4 °F 76% 29.83 in 10.0 mi NNE 3.5 mph - N/A   Overcast
8:35 PM 34.9 °F 32.0 °F 28.2 °F 77% 29.84 in 10.0 mi North 3.5 mph - N/A   Overcast
8:55 PM 35.2 °F 32.4 °F 27.7 °F 74% 29.85 in 10.0 mi ENE 3.5 mph - N/A   Overcast
9:15 PM 35.8 °F 30.9 °F 26.4 °F 69% 29.85 in 10.0 mi ENE 5.8 mph - N/A   Overcast
9:35 PM 35.6 °F - 26.2 °F 69% 29.86 in 10.0 mi Calm Calm - N/A   Overcast
9:55 PM 36.3 °F 33.7 °F 25.3 °F 64% 29.86 in 10.0 mi NNW 3.5 mph - N/A   Overcast
10:15 PM 35.6 °F - 25.2 °F 66% 29.86 in 10.0 mi Calm Calm - N/A   Overcast
10:35 PM 35.2 °F 32.4 °F 27.3 °F 73% 29.87 in 10.0 mi East 3.5 mph - N/A   Overcast
10:55 PM 34.3 °F - 29.3 °F 82% 29.87 in 7.0 mi Calm Calm - N/A Snow Light Snow
11:15 PM 33.8 °F - 29.7 °F 85% 29.88 in 10.0 mi Calm Calm - N/A Rain Light Rain
11:35 PM 33.8 °F 30.8 °F 30.2 °F 87% 29.88 in 10.0 mi West 3.5 mph - N/A Rain Light Rain
11:55 PM 33.1 °F 30.0 °F 30.6 °F 90% 29.88 in 7.0 mi WSW 3.5 mph - N/A Rain Light Rain